DW1256 Weather Reports


time (UTC)temp
C
wind
direction
speed
KPH
gust
KPH
rain 1hr
cm
rain 24hr
cm
rain mn
cm
humidity
%
barometer
mb
20260906105532 19 67 0.0 3.2 0.00 0.00 0.00 77 1015.2
20260906105033 19 67 0.0 3.2 0.00 0.00 0.00 77 1015.2
20260906104533 19 67 0.0 3.2 0.00 0.00 0.00 77 1015.1
20260906103530 19 67 0.0 3.2 0.00 0.00 0.00 77 1015.0
20260906102531 20 67 1.6 4.8 0.00 0.00 0.00 77 1014.9
20260906102027 20 67 1.6 4.8 0.00 0.00 0.00 77 1014.8
20260906100527 20 58 0.0 1.6 0.00 0.00 0.00 77 1014.7
20260906095516 20 58 0.0 3.2 0.00 0.00 0.00 77 1014.6
20260906094504 20 59 0.0 3.2 0.00 0.00 0.00 77 1014.6
20260906093958 20 59 1.6 6.4 0.00 0.00 0.00 77 1014.6
20260906093452 20 63 1.6 6.4 0.00 0.00 0.00 77 1014.6
20260906092451 20 84 1.6 6.4 0.00 0.00 0.00 77 1014.5
20260906091951 20 103 1.6 6.4 0.00 0.00 0.00 77 1014.6
20260906091453 20 87 1.6 6.4 0.00 0.00 0.00 77 1014.6
20260906090950 20 51 0.0 4.8 0.00 0.00 0.00 77 1014.7
20260906090450 20 31 0.0 4.8 0.00 0.00 0.00 77 1014.6
20260906085952 21 31 1.6 6.4 0.00 0.00 0.00 77 1014.6
20260906085447 21 28 3.2 6.4 0.00 0.00 0.00 77 1014.6
20260906084948 21 59 3.2 6.4 0.00 0.00 0.00 77 1014.5
20260906084449 21 53 3.2 6.4 0.00 0.00 0.00 77 1014.5
20260906083947 21 94 1.6 6.4 0.00 0.00 0.00 77 1014.5
20260906083448 21 86 1.6 4.8 0.00 0.00 0.00 77 1014.5
20260906082946 21 9 1.6 6.4 0.00 0.00 0.00 76 1014.5
20260906081945 21 60 3.2 8.0 0.00 0.00 0.00 76 1014.3
20260906081444 21 67 3.2 8.0 0.00 0.00 0.00 76 1014.3
20260906080939 21 9 3.2 8.0 0.00 0.00 0.00 76 1014.4
20260906075926 21 61 1.6 4.8 0.00 0.00 0.00 75 1014.5
20260906075420 21 59 1.6 4.8 0.00 0.00 0.00 75 1014.5
20260906074914 21 92 1.6 6.4 0.00 0.00 0.00 75 1014.5
20260906074410 21 42 3.2 8.0 0.00 0.00 0.00 75 1014.4
20260906073902 21 54 3.2 8.0 0.00 0.00 0.00 75 1014.4
20260906073356 21 38 3.2 6.4 0.00 0.00 0.00 75 1014.3
20260906072850 21 82 1.6 6.4 0.00 0.00 0.00 75 1014.4
20260906072343 21 0 1.6 6.4 0.00 0.00 0.00 74 1014.4
20260906071840 21 67 3.2 6.4 0.00 0.00 0.00 74 1014.4
20260906071332 21 41 1.6 8.0 0.00 0.00 0.00 74 1014.4
20260906070826 21 31 1.6 8.0 0.00 0.00 0.00 74 1014.4
20260906065814 21 57 1.6 6.4 0.00 0.00 0.00 73 1014.4
20260906065310 21 38 1.6 6.4 0.00 0.00 0.00 73 1014.4
20260906064801 21 34 1.6 6.4 0.00 0.00 0.00 73 1014.4
20260906064256 21 12 0.0 4.8 0.00 0.00 0.00 73 1014.5
20260906063751 21 350 0.0 4.8 0.00 0.00 0.00 73 1014.6
20260906063250 21 35 1.6 6.4 0.00 0.00 0.00 73 1014.6
20260906062747 21 355 3.2 8.0 0.00 0.00 0.00 72 1014.6
20260906062245 21 32 3.2 8.0 0.00 0.00 0.00 72 1014.5
20260906061745 22 40 3.2 6.4 0.00 0.00 0.00 72 1014.4
20260906061247 22 53 3.2 6.4 0.00 0.00 0.00 72 1014.5
20260906060747 22 80 1.6 6.4 0.00 0.00 0.00 72 1014.6
20260906060250 22 49 1.6 4.8 0.00 0.00 0.00 72 1014.5
20260906055247 22 43 1.6 6.4 0.00 0.00 0.00 72 1014.2
20260906054744 22 50 1.6 4.8 0.00 0.00 0.00 72 1014.2
20260906054243 22 51 1.6 4.8 0.00 0.00 0.00 72 1014.2
20260906053241 22 41 1.6 8.0 0.00 0.00 0.00 72 1014.0
20260906052743 22 36 3.2 8.0 0.00 0.00 0.00 71 1013.9
20260906052242 22 26 3.2 8.0 0.00 0.00 0.00 71 1014.0
20260906051742 22 36 3.2 8.0 0.00 0.00 0.00 71 1014.0
20260906050729 22 56 4.8 14.5 0.00 0.00 0.00 71 1013.8
20260906050224 22 51 3.2 14.5 0.00 0.00 0.00 71 1013.8
20260906045718 22 49 1.6 8.0 0.00 0.00 0.00 71 1013.7
20260906045212 22 58 3.2 8.0 0.00 0.00 0.00 71 1013.8
20260906044705 22 38 3.2 9.7 0.00 0.00 0.00 71 1013.8
20260906044159 22 65 3.2 9.7 0.00 0.00 0.00 71 1013.8
20260906043652 22 344 3.2 8.0 0.00 0.00 0.00 71 1013.8
20260906043147 22 40 4.8 9.7 0.00 0.00 0.00 71 1013.9
20260906042641 22 19 3.2 9.7 0.00 0.00 0.00 71 1013.8
20260906042135 22 46 3.2 12.9 0.00 0.00 0.00 71 1013.7
20260906041628 22 23 3.2 12.9 0.00 0.00 0.00 71 1013.6
20260906041125 22 36 3.2 11.3 0.00 0.00 0.00 71 1013.6
20260906040617 22 42 3.2 9.7 0.00 0.00 0.00 71 1013.7
20260906040112 22 84 3.2 9.7 0.00 0.00 0.00 71 1013.7
20260906035604 22 44 3.2 8.0 0.00 0.00 0.00 71 1013.6
20260906035101 22 25 3.2 9.7 0.00 0.00 0.00 71 1013.6
20260906034553 22 42 3.2 9.7 0.00 0.00 0.00 71 1013.7
20260906034048 22 42 4.8 11.3 0.00 0.00 0.00 71 1013.7
20260906033035 22 66 4.8 16.1 0.00 0.00 0.00 71 1013.6
20260906032529 22 87 4.8 17.7 0.00 0.00 0.00 71 1013.5
20260906032023 22 59 6.4 17.7 0.00 0.00 0.00 71 1013.5
20260906030505 22 19 4.8 14.5 0.00 0.00 0.00 70 1013.6
20260906030000 22 44 4.8 14.5 0.00 0.00 0.00 70 1013.6
20260906025453 22 51 4.8 14.5 0.00 0.00 0.00 70 1013.5
20260906024946 22 51 4.8 12.9 0.00 0.00 0.00 70 1013.4
20260906024441 22 59 3.2 8.0 0.00 0.00 0.00 70 1013.5
20260906023429 22 47 1.6 11.3 0.00 0.00 0.00 70 1013.4
20260906022923 22 40 1.6 8.0 0.00 0.00 0.00 70 1013.5
20260906021912 22 25 1.6 12.9 0.00 0.00 0.00 69 1013.4
20260906020353 22 36 3.2 12.9 0.00 0.00 0.00 69 1013.4
20260906015847 22 28 3.2 12.9 0.00 0.00 0.00 69 1013.3
20260906015340 22 26 3.2 11.3 0.00 0.00 0.00 69 1013.3
20260906014329 22 355 3.2 9.7 0.00 0.00 0.00 68 1013.3
20260906013316 22 46 3.2 12.9 0.00 0.00 0.00 68 1013.1
20260906012306 23 355 3.2 11.3 0.00 0.00 0.00 68 1013.0
20260906011759 23 316 3.2 9.7 0.00 0.00 0.00 67 1013.0
20260906011253 23 47 3.2 14.5 0.00 0.00 0.00 67 1012.9
20260906010747 23 20 4.8 14.5 0.00 0.00 0.00 67 1012.9
20260906010241 23 67 4.8 12.9 0.00 0.00 0.00 67 1012.8
20260906005228 23 54 6.4 19.3 0.00 0.00 0.00 66 1012.5
20260906004725 23 44 6.4 19.3 0.00 0.00 0.00 66 1012.5
20260906004217 23 33 4.8 16.1 0.00 0.00 0.00 66 1012.5
20260906003713 24 326 4.8 14.5 0.00 0.00 0.00 65 1012.6
20260906003204 24 16 4.8 17.7 0.00 0.00 0.00 65 1012.6
20260906002700 24 349 4.8 17.7 0.00 0.00 0.00 64 1012.7
20260906002153 25 33 6.4 17.7 0.00 0.00 0.00 64 1012.5
20260906001647 25 48 8.0 22.5 0.00 0.00 0.00 63 1012.5
20260906001141 25 32 6.4 24.1 0.00 0.00 0.00 63 1012.5
20260906000636 25 32 6.4 24.1 0.00 0.00 0.00 63 1012.5
20260906000129 25 59 6.4 19.3 0.00 0.00 0.00 62 1012.6
20260905235117 26 58 9.7 25.7 0.00 0.00 0.00 62 1012.4
20260905234613 26 5 9.7 25.7 0.00 0.00 0.00 61 1012.3
20260905234105 26 39 9.7 25.7 0.00 0.00 0.00 61 1012.1
20260905233601 27 40 9.7 19.3 0.00 0.00 0.00 60 1012.2
20260905232547 27 33 11.3 20.9 0.00 0.00 0.00 59 1012.2
20260905232041 27 26 9.7 20.9 0.00 0.00 0.00 59 1012.1
20260905231535 27 28 8.0 20.9 0.00 0.00 0.00 58 1011.9
20260905231029 28 51 8.0 20.9 0.00 0.00 0.00 58 1011.8
20260905230525 28 42 8.0 20.9 0.00 0.00 0.00 58 1011.8
20260905230017 28 28 8.0 20.9 0.00 0.00 0.00 57 1011.7
20260905225516 28 34 9.7 20.9 0.00 0.00 0.00 56 1011.6
20260905225005 28 19 9.7 22.5 0.00 0.00 0.00 56 1011.6
20260905224458 28 87 9.7 22.5 0.00 0.00 0.00 56 1011.7
20260905223955 28 41 11.3 25.7 0.00 0.00 0.00 56 1011.6
20260905223446 29 86 9.7 25.7 0.00 0.00 0.00 55 1011.6
20260905222435 29 56 11.3 20.9 0.00 0.00 0.00 55 1011.6
20260905221931 30 68 11.3 20.9 0.00 0.00 0.00 55 1011.5
20260905221423 30 40 9.7 19.3 0.00 0.00 0.00 54 1011.5
20260905220917 30 53 11.3 22.5 0.00 0.00 0.00 55 1011.3
20260905220410 30 25 11.3 24.1 0.00 0.00 0.00 54 1011.3
20260905215358 31 59 8.0 24.1 0.00 0.00 0.00 54 1011.1
20260905214854 31 34 8.0 22.5 0.00 0.00 0.00 52 1011.1
20260905213335 31 312 8.0 17.7 0.00 0.00 0.00 53 1011.2
20260905212830 31 59 8.0 17.7 0.00 0.00 0.00 52 1011.1
20260905211817 32 18 9.7 22.5 0.00 0.00 0.00 51 1011.1
20260905210805 32 339 8.0 17.7 0.00 0.00 0.00 52 1011.1
20260905210259 32 340 6.4 20.9 0.00 0.00 0.00 52 1011.1
20260905205752 32 346 8.0 22.5 0.00 0.00 0.00 52 1011.0
20260905204740 32 13 8.0 20.9 0.00 0.00 0.00 53 1010.9
20260905204236 32 25 8.0 20.9 0.00 0.00 0.00 53 1010.8
20260905203729 32 46 6.4 17.7 0.00 0.00 0.00 52 1010.8
20260905203223 33 355 8.0 19.3 0.00 0.00 0.00 51 1010.9
20260905202718 33 347 8.0 19.3 0.00 0.00 0.00 51 1011.0
20260905202211 33 28 8.0 19.3 0.00 0.00 0.00 52 1011.0
20260905201706 33 304 8.0 19.3 0.00 0.00 0.00 50 1011.1
20260905200652 33 41 8.0 19.3 0.00 0.00 0.00 50 1011.0
20260905200147 33 28 9.7 19.3 0.00 0.00 0.00 51 1010.9
20260905195642 33 295 8.0 17.7 0.00 0.00 0.00 51 1010.9
20260905195135 33 5 6.4 16.1 0.00 0.00 0.00 51 1010.9
20260905194630 33 298 8.0 19.3 0.00 0.00 0.00 51 1011.0
20260905194123 33 327 8.0 19.3 0.00 0.00 0.00 51 1011.1
20260905193111 33 312 4.8 12.9 0.00 0.00 0.00 49 1011.2
20260905192604 33 355 4.8 12.9 0.00 0.00 0.00 49 1011.2
20260905192059 33 340 4.8 12.9 0.00 0.00 0.00 52 1011.1
20260905191553 33 340 6.4 14.5 0.00 0.00 0.00 51 1011.2
20260905191046 33 42 6.4 14.5 0.00 0.00 0.00 53 1011.2
20260905190545 32 336 6.4 19.3 0.00 0.00 0.00 52 1011.4
20260905190044 33 335 6.4 19.3 0.00 0.00 0.00 51 1011.4
20260905185042 34 34 4.8 12.9 0.00 0.00 0.00 49 1011.4
20260905184041 33 305 6.4 16.1 0.00 0.00 0.00 53 1011.7
20260905183542 33 330 4.8 16.1 0.00 0.00 0.00 51 1011.7
20260905183044 33 341 4.8 11.3 0.00 0.00 0.00 54 1011.6
20260905182540 33 328 4.8 12.9 0.00 0.00 0.00 52 1011.7
20260905181537 33 325 4.8 16.1 0.00 0.00 0.00 51 1011.7
20260905180537 32 355 4.8 9.7 0.00 0.00 0.00 52 1011.7
20260905180039 33 17 1.6 9.7 0.00 0.00 0.00 54 1011.7
20260905175538 33 300 3.2 9.7 0.00 0.00 0.00 52 1011.8
20260905175038 32 332 4.8 16.1 0.00 0.00 0.00 53 1011.8
20260905174538 32 309 4.8 16.1 0.00 0.00 0.00 53 1011.8
20260905174039 32 296 4.8 11.3 0.00 0.00 0.00 54 1011.8
20260905173027 32 343 3.2 12.9 0.00 0.00 0.00 54 1011.9
20260905172015 32 355 4.8 12.9 0.00 0.00 0.00 52 1012.0
20260905171003 32 290 3.2 12.9 0.00 0.00 0.00 51 1012.1
20260905170459 32 351 3.2 9.7 0.00 0.00 0.00 51 1012.1
20260905165953 32 325 4.8 9.7 0.00 0.00 0.00 52 1012.2
20260905165447 32 306 3.2 9.7 0.00 0.00 0.00 53 1012.2
20260905164939 32 257 3.2 9.7 0.00 0.00 0.00 54 1012.2
20260905164433 32 329 4.8 9.7 0.00 0.00 0.00 53 1012.2
20260905163927 32 0 4.8 11.3 0.00 0.00 0.00 54 1012.3
20260905163422 32 286 4.8 12.9 0.00 0.00 0.00 54 1012.3
20260905162915 31 335 4.8 12.9 0.00 0.00 0.00 55 1012.3
20260905162409 31 311 6.4 12.9 0.00 0.00 0.00 55 1012.3
20260905161903 31 310 8.0 14.5 0.00 0.00 0.00 53 1012.3
20260905161357 31 285 8.0 16.1 0.00 0.00 0.00 53 1012.3
20260905160852 32 292 8.0 16.1 0.00 0.00 0.00 51 1012.3
20260905155839 31 315 6.4 19.3 0.00 0.00 0.00 52 1012.3
20260905155334 31 307 4.8 11.3 0.00 0.00 0.00 56 1012.2
20260905154829 31 312 4.8 12.9 0.00 0.00 0.00 56 1012.1
20260905153816 31 329 4.8 17.7 0.00 0.00 0.00 55 1012.1
20260905153314 31 289 1.6 9.7 0.00 0.00 0.00 56 1012.2
20260905152803 31 313 1.6 9.7 0.00 0.00 0.00 56 1012.2
20260905152257 31 302 3.2 11.3 0.00 0.00 0.00 58 1012.2
20260905151752 31 275 3.2 11.3 0.00 0.00 0.00 57 1012.2
20260905151245 30 0 3.2 9.7 0.00 0.00 0.00 58 1012.1
20260905150739 30 283 4.8 9.7 0.00 0.00 0.00 59 1012.2
20260905150234 30 292 3.2 8.0 0.00 0.00 0.00 59 1012.1
20260905145727 30 328 3.2 8.0 0.00 0.00 0.00 60 1012.1
20260905144715 29 315 3.2 6.4 0.00 0.00 0.00 60 1012.0
20260905144210 30 5 3.2 8.0 0.00 0.00 0.00 60 1012.0
20260905143704 29 13 3.2 8.0 0.00 0.00 0.00 61 1011.9
20260905143156 29 346 3.2 8.0 0.00 0.00 0.00 62 1011.9
20260905142148 28 341 3.2 9.7 0.00 0.00 0.00 63 1012.1
20260905141649 28 52 3.2 9.7 0.00 0.00 0.00 64 1012.2
20260905141149 28 313 4.8 9.7 0.00 0.00 0.00 63 1012.3
20260905140146 28 336 3.2 6.4 0.00 0.00 0.00 64 1012.1
20260905135643 28 331 1.6 8.0 0.00 0.00 0.00 65 1012.1
20260905135139 27 0 3.2 8.0 0.00 0.00 0.00 65 1012.1
20260905134641 27 323 1.6 4.8 0.00 0.00 0.00 65 1012.0
20260905133640 27 274 0.0 0.0 0.00 0.00 0.00 65 1011.9
20260905133142 27 273 0.0 0.0 0.00 0.00 0.00 66 1011.9
20260905132639 26 274 0.0 0.0 0.00 0.00 0.00 67 1011.9
20260905131638 26 274 0.0 0.0 0.00 0.00 0.00 70 1011.8
20260905131136 26 274 0.0 0.0 0.00 0.00 0.00 73 1011.8
20260905130637 25 274 0.0 0.0 0.00 0.00 0.00 74 1011.8
20260905130137 25 274 0.0 0.0 0.00 0.00 0.00 74 1011.8
20260905125634 25 274 0.0 0.0 0.00 0.00 0.00 74 1011.8
20260905124629 25 274 0.0 0.0 0.00 0.00 0.00 74 1011.8
20260905124129 24 273 0.0 0.0 0.00 0.00 0.00 74 1011.8
20260905123125 24 273 0.0 0.0 0.00 0.00 0.00 74 1011.7
20260905122621 24 273 0.0 0.0 0.00 0.00 0.00 73 1011.7
20260905122121 24 273 0.0 0.0 0.00 0.00 0.00 73 1011.7
20260905121622 24 273 0.0 0.0 0.00 0.00 0.00 73 1011.7
20260905121120 23 273 0.0 0.0 0.00 0.00 0.00 73 1011.7
20260905120620 23 273 0.0 0.0 0.00 0.00 0.00 73 1011.6
20260905120115 23 274 0.0 0.0 0.00 0.00 0.00 73 1011.6
20260905115620 23 273 0.0 0.0 0.00 0.00 0.00 73 1011.6
20260905115115 23 273 0.0 0.0 0.00 0.00 0.00 73 1011.5
20260905114614 23 273 0.0 0.0 0.00 0.00 0.00 72 1011.5
20260905114113 23 273 0.0 0.0 0.00 0.00 0.00 72 1011.4
20260905113610 24 273 0.0 0.0 0.00 0.00 0.00 72 1011.4
20260905113110 24 274 0.0 0.0 0.00 0.00 0.00 72 1011.5
20260905112610 24 273 0.0 0.0 0.00 0.00 0.00 72 1011.4
20260905112109 24 273 0.0 0.0 0.00 0.00 0.00 72 1011.4
20260905111608 24 273 0.0 0.0 0.00 0.00 0.00 72 1011.4
20260905111110 24 274 0.0 0.0 0.00 0.00 0.00 72 1011.3
20260905110612 24 273 0.0 0.0 0.00 0.00 0.00 72 1011.3
20260905110109 24 273 0.0 0.0 0.00 0.00 0.00 72 1011.3